sat.trackr.live / text

‹ back to catalog

CATCH-1

NORAD 60088 · 2024-116A

PAYLOAD ACTIVE UNKNOWN

§ Identity

Operator
Country
PRC
Launch date
2024-06-22
Launch site
XICLF
Launch vehicle
Mass (kg)
RCS (m²)

External: N2YO · Heavens-Above · Gunter

§ Orbital elements

Epoch: 2026-09-22T23:40:50.186208Z

Period
96.96 min
Inclination
28.9945°
Eccentricity
0.0003834
Mean motion
14.85143503 rev/d
Perigee alt
610.5 km
Apogee alt
615.8 km
Semi-major
6,991.3 km
B*
1.4188e-4
RAAN
211.4939°
Arg perigee
345.2176°
Mean anomaly
14.8305°
Rev number
12,221

§ Raw data

CATCH-11 60088U 24116A   26265.98669197  .00001370  00000+0  14188-3 0  99972 60088  28.9945 211.4939 0003834 345.2176  14.8305 14.85143503122219

JSON: /api/v1/satellites/60088 · /tle

For live sub-satellite position, see the globe view (requires WebGL).

§ Visibility from observer

Set your observer location to see the next 7 days of passes ≥ 10°. The values pass through the URL so the page stays shareable.

No JS? Fill the form by hand. The geolocation button needs JavaScript.